"Sample Date","Sample Time","Sample Value","Units","Flow Rate","Sample Interval","Number Channels","Micron Size 0","Counts/Channel 0","Micron Size 1","Counts/Channel 1","Micron Size 2","Counts/Channel 2","Micron Size 3","Counts/Channel 3","Micron Size 4","Counts/Channel 4","Micron Size 5","Counts/Channel 5","Micron Size 6","Counts/Channel 6","Micron Size 7","Counts/Channel 7","Micron Size 8","Counts/Channel 8","Micron Size 9","Counts/Channel 9","Micron Size 10","Counts/Channel 10","Micron Size 11","Counts/Channel 11","Micron Size 12","Counts/Channel 12","Micron Size 13","Counts/Channel 13","Micron Size 14","Counts/Channel 14","Micron Size 15","Counts/Channel 15","Micron Size 16","Counts/Channel 16","Micron Size 17","Counts/Channel 17","Micron Size 18","Counts/Channel 18","Micron Size 19","Counts/Channel 19","Micron Size 20","Counts/Channel 20","Micron Size 21","Counts/Channel 21","Micron Size 22","Counts/Channel 22","Micron Size 23","Counts/Channel 23","Micron Size 24","Counts/Channel 24","Micron Size 25","Counts/Channel 25","Micron Size 26","Counts/Channel 26","Micron Size 27","Counts/Channel 27","Micron Size 28","Counts/Channel 28","Micron Size 29","Counts/Channel 29","Micron Size 30","Counts/Channel 30","Micron Size 31","Counts/Channel 31"
"03/09/08","03:00:03",32345.000,"cc",28324.867,6.00,6,0.100,27687.000,0.200,2127.000,0.300,1053.000,0.500,1151.000,1.000,327.000,5.000,0
"03/09/08","03:00:09",32340.000,"cc",28275.533,6.00,6,0.100,27635.000,0.200,2192.000,0.300,982.000,0.500,1154.000,1.000,377.000,5.000,0
"03/09/08","03:00:15",32702.000,"cc",28290.682,6.00,6,0.100,27720.000,0.200,2335.000,0.300,1036.000,0.500,1236.000,1.000,375.000,5.000,0
"03/09/08","03:00:21",32386.000,"cc",28222.572,6.00,6,0.100,27639.000,0.200,2211.000,0.300,1016.000,0.500,1176.000,1.000,344.000,5.000,0
"03/09/08","03:00:27",32618.000,"cc",28250.977,6.00,6,0.100,27556.000,0.200,2308.000,0.300,1064.000,0.500,1352.000,1.000,338.000,5.000,0
"03/09/08","03:00:33",32657.000,"cc",28309.188,6.00,6,0.100,27820.000,0.200,2211.000,0.300,1065.000,0.500,1224.000,1.000,337.000,5.000,0
"03/09/08","03:00:39",32706.000,"cc",28305.055,6.00,6,0.100,27963.000,0.200,2168.000,0.300,1020.000,0.500,1212.000,1.000,343.000,5.000,0
"03/09/08","03:00:45",32875.000,"cc",28256.211,6.00,6,0.100,28198.000,0.200,2264.000,0.300,1040.000,0.500,1077.000,1.000,296.000,5.000,0
"03/09/08","03:00:51",32451.000,"cc",28325.135,6.00,6,0.100,27713.000,0.200,2293.000,0.300,1007.000,0.500,1136.000,1.000,302.000,5.000,0
"03/09/08","03:00:57",33014.000,"cc",28341.953,6.00,6,0.100,28136.000,0.200,2278.000,0.300,1059.000,0.500,1236.000,1.000,305.000,5.000,0
"03/09/08","03:01:03",32827.000,"cc",28264.539,6.00,6,0.100,27974.000,0.200,2350.000,0.300,1084.000,0.500,1153.000,1.000,266.000,5.000,0
"03/09/08","03:01:09",33297.000,"cc",28378.854,6.00,6,0.100,28082.000,0.200,2378.000,0.300,1136.000,0.500,1385.000,1.000,316.000,5.000,0
"03/09/08","03:01:15",33081.000,"cc",28299.039,6.00,6,0.100,28107.000,0.200,2385.000,0.300,1080.000,0.500,1168.000,1.000,341.000,5.000,0
"03/09/08","03:01:21",33408.000,"cc",28359.965,6.00,6,0.100,28576.000,0.200,2338.000,0.300,1090.000,0.500,1139.000,1.000,265.000,5.000,0
"03/09/08","03:01:27",38068.000,"cc",28358.945,6.00,6,0.100,32609.000,0.200,2785.000,0.300,1134.000,0.500,1228.000,1.000,312.000,5.000,0
"03/09/08","03:01:33",46297.000,"cc",28292.568,6.00,6,0.100,39595.000,0.200,3585.000,0.300,1386.000,0.500,1349.000,1.000,382.000,5.000,0
"03/09/08","03:01:39",53020.000,"cc",28408.881,6.00,6,0.100,45927.000,0.200,4193.000,0.300,1240.000,0.500,1291.000,1.000,369.000,5.000,0
"03/09/08","03:01:45",172994.000,"cc",28301.254,6.00,6,0.100,153800.000,0.200,15482.000,0.300,1740.000,0.500,1563.000,1.000,409.000,5.000,0
"03/09/08","03:01:51",162876.000,"cc",28334.408,6.00,6,0.100,144401.000,0.200,14661.000,0.300,1857.000,0.500,1496.000,1.000,461.000,5.000,0
"03/09/08","03:01:57",204768.000,"cc",28246.602,6.00,6,0.100,182361.000,0.200,18765.000,0.300,1764.000,0.500,1467.000,1.000,411.000,5.000,0
"03/09/08","03:02:03",234824.000,"cc",28368.697,6.00,6,0.100,208946.000,0.200,22242.000,0.300,1918.000,0.500,1344.000,1.000,374.000,5.000,0
"03/09/08","03:02:09",296733.000,"cc",28221.768,6.00,6,0.100,261787.000,0.200,30967.000,0.300,2206.000,0.500,1408.000,1.000,365.000,5.000,0
"03/09/08","03:02:15",298678.000,"cc",28301.963,6.00,6,0.100,262270.000,0.200,32140.000,0.300,2352.000,0.500,1519.000,1.000,397.000,5.000,0
"03/09/08","03:02:21",400698.000,"cc",28305.338,6.00,6,0.100,346823.000,0.200,49038.000,0.300,2985.000,0.500,1439.000,1.000,413.000,5.000,0
"03/09/08","03:02:27",209571.000,"cc",28331.572,6.00,6,0.100,134323.000,0.200,69408.000,0.300,4067.000,0.500,1381.000,1.000,392.000,5.000,0
"03/09/08","03:02:33",157331.000,"cc",28291.279,6.00,6,0.100,77594.000,0.200,73539.000,0.300,4259.000,0.500,1531.000,1.000,408.000,5.000,0
"03/09/08","03:02:39",217179.000,"cc",28341.176,6.00,6,0.100,141307.000,0.200,70015.000,0.300,4038.000,0.500,1482.000,1.000,337.000,5.000,0
"03/09/08","03:02:45",287261.000,"cc",28309.840,6.00,6,0.100,240902.000,0.200,41981.000,0.300,2633.000,0.500,1397.000,1.000,348.000,5.000,0
"03/09/08","03:02:51",228711.000,"cc",28329.334,6.00,6,0.100,167671.000,0.200,55339.000,0.300,3569.000,0.500,1667.000,1.000,465.000,5.000,0
"03/09/08","03:02:57",222584.000,"cc",28303.012,6.00,6,0.100,143369.000,0.200,71532.000,0.300,4911.000,0.500,2194.000,1.000,578.000,5.000,0
"03/09/08","03:03:03",149169.000,"cc",28311.658,6.00,6,0.100,72696.000,0.200,69703.000,0.300,4389.000,0.500,1867.000,1.000,514.000,5.000,0
"03/09/08","03:03:09",194819.000,"cc",28336.563,6.00,6,0.100,100599.000,0.200,87071.000,0.300,5124.000,0.500,1616.000,1.000,409.000,5.000,0
"03/09/08","03:03:15",280256.000,"cc",28305.059,6.00,6,0.100,158530.000,0.200,112860.000,0.300,6724.000,0.500,1733.000,1.000,409.000,5.000,0
"03/09/08","03:03:21",214176.000,"cc",28330.926,6.00,6,0.100,82010.000,0.200,122857.000,0.300,7319.000,0.500,1586.000,1.000,404.000,5.000,0
"03/09/08","03:03:27",252690.000,"cc",28280.551,6.00,6,0.100,147190.000,0.200,96768.000,0.300,6146.000,0.500,2063.000,1.000,523.000,5.000,0
"03/09/08","03:03:33",386527.000,"cc",28375.777,6.00,6,0.100,318354.000,0.200,61261.000,0.300,4231.000,0.500,2096.000,1.000,585.000,5.000,0
"03/09/08","03:03:39",288693.000,"cc",28255.779,6.00,6,0.100,241893.000,0.200,41469.000,0.300,3121.000,0.500,1724.000,1.000,486.000,5.000,0
"03/09/08","03:03:45",224550.000,"cc",28346.529,6.00,6,0.100,199232.000,0.200,21212.000,0.300,2165.000,0.500,1510.000,1.000,431.000,5.000,0
"03/09/08","03:03:51",177325.000,"cc",28285.697,6.00,6,0.100,156764.000,0.200,16681.000,0.300,1925.000,0.500,1545.000,1.000,410.000,5.000,0
"03/09/08","03:03:57",137187.000,"cc",28264.721,6.00,6,0.100,121229.000,0.200,12596.000,0.300,1669.000,0.500,1337.000,1.000,356.000,5.000,0
"03/09/08","03:04:03",69223.000,"cc",28362.273,6.00,6,0.100,60559.000,0.200,5509.000,0.300,1408.000,0.500,1388.000,1.000,359.000,5.000,0
"03/09/08","03:04:09",62991.000,"cc",28288.268,6.00,6,0.100,54646.000,0.200,5168.000,0.300,1362.000,0.500,1427.000,1.000,388.000,5.000,0
"03/09/08","03:04:15",77359.000,"cc",28319.615,6.00,6,0.100,67797.000,0.200,6459.000,0.300,1386.000,0.500,1371.000,1.000,346.000,5.000,0
"03/09/08","03:04:21",92326.000,"cc",28371.227,6.00,6,0.100,81384.000,0.200,7951.000,0.300,1395.000,0.500,1277.000,1.000,319.000,5.000,0
"03/09/08","03:04:27",109234.000,"cc",28275.502,6.00,6,0.100,96529.000,0.200,9577.000,0.300,1504.000,0.500,1296.000,1.000,328.000,5.000,0
"03/09/08","03:04:33",109723.000,"cc",28310.391,6.00,6,0.100,96986.000,0.200,9596.000,0.300,1560.000,0.500,1306.000,1.000,275.000,5.000,0
"03/09/08","03:04:39",78926.000,"cc",28363.961,6.00,6,0.100,69154.000,0.200,6829.000,0.300,1375.000,0.500,1242.000,1.000,326.000,5.000,0
"03/09/08","03:04:45",110163.000,"cc",28336.967,6.00,6,0.100,97288.000,0.200,9672.000,0.300,1503.000,0.500,1338.000,1.000,362.000,5.000,0
"03/09/08","03:04:51",59091.000,"cc",28360.453,6.00,6,0.100,51215.000,0.200,4803.000,0.300,1388.000,0.500,1338.000,1.000,347.000,5.000,0
"03/09/08","03:04:57",97012.000,"cc",28311.600,6.00,6,0.100,85453.000,0.200,8443.000,0.300,1431.000,0.500,1320.000,1.000,365.000,5.000,0
"03/09/08","03:05:03",76772.000,"cc",28283.356,6.00,6,0.100,66861.000,0.200,6537.000,0.300,1539.000,0.500,1464.000,1.000,371.000,5.000,0
"03/09/08","03:05:09",140005.000,"cc",28326.697,6.00,6,0.100,123657.000,0.200,12648.000,0.300,1762.000,0.500,1532.000,1.000,406.000,5.000,0
"03/09/08","03:05:15",152820.000,"cc",28355.223,6.00,6,0.100,135258.000,0.200,13894.000,0.300,1761.000,0.500,1516.000,1.000,391.000,5.000,0
"03/09/08","03:05:21",124595.000,"cc",28270.361,6.00,6,0.100,110528.000,0.200,10746.000,0.300,1582.000,0.500,1392.000,1.000,347.000,5.000,0
"03/09/08","03:05:27",168131.000,"cc",28288.600,6.00,6,0.100,149535.000,0.200,15222.000,0.300,1580.000,0.500,1399.000,1.000,395.000,5.000,0
"03/09/08","03:05:33",122902.000,"cc",28371.381,6.00,6,0.100,109318.000,0.200,10609.000,0.300,1420.000,0.500,1249.000,1.000,306.000,5.000,0
"03/09/08","03:05:39",142004.000,"cc",28379.424,6.00,6,0.100,126385.000,0.200,12363.000,0.300,1550.000,0.500,1351.000,1.000,355.000,5.000,0
"03/09/08","03:05:45",202072.000,"cc",28297.477,6.00,6,0.100,179561.000,0.200,19192.000,0.300,1682.000,0.500,1274.000,1.000,363.000,5.000,0
"03/09/08","03:05:51",227161.000,"cc",28297.320,6.00,6,0.100,201634.000,0.200,21883.000,0.300,1891.000,0.500,1372.000,1.000,381.000,5.000,0
"03/09/08","03:05:57",289145.000,"cc",28287.807,6.00,6,0.100,255716.000,0.200,29505.000,0.300,2165.000,0.500,1340.000,1.000,419.000,5.000,0
"03/09/08","03:06:03",288611.000,"cc",28301.361,6.00,6,0.100,232794.000,0.200,50663.000,0.300,3191.000,0.500,1544.000,1.000,419.000,5.000,0
"03/09/08","03:06:09",211607.000,"cc",28317.977,6.00,6,0.100,111260.000,0.200,92999.000,0.300,5207.000,0.500,1673.000,1.000,468.000,5.000,0
"03/09/08","03:06:15",212414.000,"cc",28379.205,6.00,6,0.100,109287.000,0.200,95611.000,0.300,5342.000,0.500,1726.000,1.000,448.000,5.000,0
"03/09/08","03:06:21",319300.000,"cc",28288.731,6.00,6,0.100,246879.000,0.200,66592.000,0.300,3927.000,0.500,1483.000,1.000,419.000,5.000,0
"03/09/08","03:06:27",262798.000,"cc",28283.551,6.00,6,0.100,231806.000,0.200,26906.000,0.300,2203.000,0.500,1479.000,1.000,404.000,5.000,0
"03/09/08","03:06:33",228406.000,"cc",28356.416,6.00,6,0.100,203218.000,0.200,21294.000,0.300,2037.000,0.500,1428.000,1.000,429.000,5.000,0
"03/09/08","03:06:39",221239.000,"cc",28392.705,6.00,6,0.100,194176.000,0.200,22096.000,0.300,2551.000,0.500,1905.000,1.000,511.000,5.000,0
"03/09/08","03:06:45",424231.000,"cc",28249.383,6.00,6,0.100,367236.000,0.200,50999.000,0.300,3478.000,0.500,1946.000,1.000,572.000,5.000,0
"03/09/08","03:06:51",301654.000,"cc",28256.881,6.00,6,0.100,266726.000,0.200,29966.000,0.300,2639.000,0.500,1807.000,1.000,516.000,5.000,0
"03/09/08","03:06:57",269517.000,"cc",28304.654,6.00,6,0.100,238057.000,0.200,26322.000,0.300,2621.000,0.500,1975.000,1.000,542.000,5.000,0
"03/09/08","03:07:03",159525.000,"cc",28298.148,6.00,6,0.100,141939.000,0.200,13814.000,0.300,1851.000,0.500,1549.000,1.000,372.000,5.000,0
"03/09/08","03:07:09",197944.000,"cc",28299.781,6.00,6,0.100,175101.000,0.200,18298.000,0.300,2218.000,0.500,1796.000,1.000,531.000,5.000,0
"03/09/08","03:07:15",243654.000,"cc",28363.150,6.00,6,0.100,214348.000,0.200,23721.000,0.300,2872.000,0.500,2158.000,1.000,555.000,5.000,0
"03/09/08","03:07:21",195934.000,"cc",28332.313,6.00,6,0.100,173889.000,0.200,17781.000,0.300,2125.000,0.500,1675.000,1.000,464.000,5.000,0
"03/09/08","03:07:27",185162.000,"cc",28328.125,6.00,6,0.100,164056.000,0.200,16709.000,0.300,2163.000,0.500,1741.000,1.000,493.000,5.000,0
"03/09/08","03:07:33",102265.000,"cc",28293.697,6.00,6,0.100,90623.000,0.200,8328.000,0.300,1498.000,0.500,1414.000,1.000,402.000,5.000,0
"03/09/08","03:07:39",225747.000,"cc",28331.045,6.00,6,0.100,199883.000,0.200,21622.000,0.300,2172.000,0.500,1618.000,1.000,452.000,5.000,0
"03/09/08","03:07:45",135068.000,"cc",28373.594,6.00,6,0.100,120052.000,0.200,11451.000,0.300,1680.000,0.500,1496.000,1.000,389.000,5.000,0
"03/09/08","03:07:51",120109.000,"cc",28316.471,6.00,6,0.100,106615.000,0.200,10058.000,0.300,1595.000,0.500,1429.000,1.000,412.000,5.000,0
"03/09/08","03:07:57",136812.000,"cc",28229.789,6.00,6,0.100,121217.000,0.200,11894.000,0.300,1705.000,0.500,1561.000,1.000,435.000,5.000,0
"03/09/08","03:08:03",131669.000,"cc",28325.047,6.00,6,0.100,117067.000,0.200,11180.000,0.300,1599.000,0.500,1416.000,1.000,407.000,5.000,0
"03/09/08","03:08:09",198469.000,"cc",28362.504,6.00,6,0.100,176245.000,0.200,18333.000,0.300,1965.000,0.500,1507.000,1.000,419.000,5.000,0
"03/09/08","03:08:15",202104.000,"cc",28314.586,6.00,6,0.100,179681.000,0.200,18491.000,0.300,1990.000,0.500,1518.000,1.000,424.000,5.000,0
"03/09/08","03:08:21",158397.000,"cc",28247.379,6.00,6,0.100,140939.000,0.200,13945.000,0.300,1716.000,0.500,1377.000,1.000,420.000,5.000,0
"03/09/08","03:08:27",128016.000,"cc",28343.691,6.00,6,0.100,113917.000,0.200,10967.000,0.300,1431.000,0.500,1305.000,1.000,396.000,5.000,0
"03/09/08","03:08:33",167504.000,"cc",28328.691,6.00,6,0.100,148441.000,0.200,15098.000,0.300,1923.000,0.500,1569.000,1.000,473.000,5.000,0
"03/09/08","03:08:39",180859.000,"cc",28278.326,6.00,6,0.100,160077.000,0.200,16736.000,0.300,1981.000,0.500,1635.000,1.000,430.000,5.000,0
"03/09/08","03:08:45",153412.000,"cc",28361.186,6.00,6,0.100,136302.000,0.200,13699.000,0.300,1662.000,0.500,1411.000,1.000,338.000,5.000,0
"03/09/08","03:08:51",163118.000,"cc",28219.428,6.00,6,0.100,145029.000,0.200,14443.000,0.300,1769.000,0.500,1502.000,1.000,375.000,5.000,0
"03/09/08","03:08:57",199583.000,"cc",28355.693,6.00,6,0.100,177489.000,0.200,18253.000,0.300,1916.000,0.500,1522.000,1.000,403.000,5.000,0
"03/09/08","03:09:03",223269.000,"cc",28400.186,6.00,6,0.100,197853.000,0.200,21131.000,0.300,2203.000,0.500,1633.000,1.000,449.000,5.000,0
"03/09/08","03:09:09",153291.000,"cc",28261.932,6.00,6,0.100,136604.000,0.200,13239.000,0.300,1700.000,0.500,1374.000,1.000,374.000,5.000,0
"03/09/08","03:09:15",183716.000,"cc",28293.066,6.00,6,0.100,163966.000,0.200,16076.000,0.300,1899.000,0.500,1368.000,1.000,407.000,5.000,0
"03/09/08","03:09:21",145091.000,"cc",28329.457,6.00,6,0.100,129135.000,0.200,12517.000,0.300,1567.000,0.500,1532.000,1.000,340.000,5.000,0
"03/09/08","03:09:27",130849.000,"cc",28281.967,6.00,6,0.100,116322.000,0.200,10971.000,0.300,1674.000,0.500,1490.000,1.000,392.000,5.000,0
"03/09/08","03:09:33",160773.000,"cc",28321.293,6.00,6,0.100,142316.000,0.200,14078.000,0.300,2036.000,0.500,1837.000,1.000,506.000,5.000,0
"03/09/08","03:09:39",129313.000,"cc",28326.373,6.00,6,0.100,115029.000,0.200,10679.000,0.300,1692.000,0.500,1508.000,1.000,405.000,5.000,0
"03/09/08","03:09:45",196208.000,"cc",28298.510,6.00,6,0.100,174866.000,0.200,17195.000,0.300,2019.000,0.500,1677.000,1.000,451.000,5.000,0
"03/09/08","03:09:51",142204.000,"cc",28316.260,6.00,6,0.100,126858.000,0.200,11855.000,0.300,1619.000,0.500,1475.000,1.000,397.000,5.000,0
"03/09/08","03:09:57",194165.000,"cc",28350.191,6.00,6,0.100,173000.000,0.200,17035.000,0.300,2077.000,0.500,1614.000,1.000,439.000,5.000,0
"03/09/08","03:10:03",193740.000,"cc",28275.063,6.00,6,0.100,172678.000,0.200,17070.000,0.300,1959.000,0.500,1620.000,1.000,413.000,5.000,0
"03/09/08","03:10:09",210834.000,"cc",28292.412,6.00,6,0.100,188206.000,0.200,18718.000,0.300,1972.000,0.500,1536.000,1.000,402.000,5.000,0
"03/09/08","03:10:15",233198.000,"cc",28331.391,6.00,6,0.100,208112.000,0.200,21005.000,0.300,2103.000,0.500,1589.000,1.000,389.000,5.000,0
"03/09/08","03:10:21",232434.000,"cc",28345.924,6.00,6,0.100,207641.000,0.200,20770.000,0.300,2073.000,0.500,1519.000,1.000,431.000,5.000,0
"03/09/08","03:10:27",245625.000,"cc",28344.736,6.00,6,0.100,218755.000,0.200,22738.000,0.300,2181.000,0.500,1509.000,1.000,442.000,5.000,0
"03/09/08","03:10:33",263768.000,"cc",28286.772,6.00,6,0.100,234728.000,0.200,24601.000,0.300,2317.000,0.500,1689.000,1.000,433.000,5.000,0
"03/09/08","03:10:39",280055.000,"cc",28343.729,6.00,6,0.100,248545.000,0.200,26608.000,0.300,2520.000,0.500,1891.000,1.000,491.000,5.000,0
"03/09/08","03:10:45",265893.000,"cc",28345.615,6.00,6,0.100,235657.000,0.200,25484.000,0.300,2488.000,0.500,1784.000,1.000,480.000,5.000,0
"03/09/08","03:10:51",255430.000,"cc",28274.734,6.00,6,0.100,227293.000,0.200,23781.000,0.300,2261.000,0.500,1653.000,1.000,442.000,5.000,0
"03/09/08","03:10:57",263195.000,"cc",28268.836,6.00,6,0.100,233521.000,0.200,25066.000,0.300,2463.000,0.500,1723.000,1.000,422.000,5.000,0
"03/09/08","03:11:03",236693.000,"cc",28339.410,6.00,6,0.100,210576.000,0.200,21790.000,0.300,2191.000,0.500,1657.000,1.000,479.000,5.000,0
"03/09/08","03:11:09",191331.000,"cc",28317.846,6.00,6,0.100,170732.000,0.200,16870.000,0.300,1826.000,0.500,1514.000,1.000,389.000,5.000,0
"03/09/08","03:11:15",323429.000,"cc",28310.494,6.00,6,0.100,274293.000,0.200,43834.000,0.300,3133.000,0.500,1722.000,1.000,447.000,5.000,0
"03/09/08","03:11:21",272149.000,"cc",28303.701,6.00,6,0.100,240645.000,0.200,27086.000,0.300,2422.000,0.500,1601.000,1.000,395.000,5.000,0
"03/09/08","03:11:27",256753.000,"cc",28388.992,6.00,6,0.100,228208.000,0.200,24313.000,0.300,2201.000,0.500,1639.000,1.000,392.000,5.000,0
"03/09/08","03:11:33",212080.000,"cc",28308.531,6.00,6,0.100,188865.000,0.200,19244.000,0.300,2006.000,0.500,1567.000,1.000,398.000,5.000,0
"03/09/08","03:11:39",210788.000,"cc",28292.709,6.00,6,0.100,187899.000,0.200,18939.000,0.300,1960.000,0.500,1533.000,1.000,457.000,5.000,0
"03/09/08","03:11:45",230609.000,"cc",28269.744,6.00,6,0.100,205101.000,0.200,21170.000,0.300,2216.000,0.500,1691.000,1.000,431.000,5.000,0
"03/09/08","03:11:51",221247.000,"cc",28382.809,6.00,6,0.100,196868.000,0.200,19917.000,0.300,2270.000,0.500,1720.000,1.000,472.000,5.000,0
"03/09/08","03:11:57",256652.000,"cc",28248.184,6.00,6,0.100,227743.000,0.200,24523.000,0.300,2350.000,0.500,1656.000,1.000,380.000,5.000,0
"03/09/08","03:12:03",311572.000,"cc",28363.481,6.00,6,0.100,275338.000,0.200,31355.000,0.300,2671.000,0.500,1785.000,1.000,423.000,5.000,0
"03/09/08","03:12:09",277162.000,"cc",28346.373,6.00,6,0.100,245627.000,0.200,26910.000,0.300,2495.000,0.500,1684.000,1.000,446.000,5.000,0
"03/09/08","03:12:15",288009.000,"cc",28302.232,6.00,6,0.100,255040.000,0.200,28125.000,0.300,2594.000,0.500,1784.000,1.000,466.000,5.000,0
"03/09/08","03:12:21",301899.000,"cc",28339.072,6.00,6,0.100,266894.000,0.200,30249.000,0.300,2552.000,0.500,1753.000,1.000,451.000,5.000,0
"03/09/08","03:12:27",280050.000,"cc",28238.873,6.00,6,0.100,247828.000,0.200,27221.000,0.300,2694.000,0.500,1871.000,1.000,436.000,5.000,0
"03/09/08","03:12:33",214358.000,"cc",28259.576,6.00,6,0.100,189784.000,0.200,19683.000,0.300,2501.000,0.500,1959.000,1.000,431.000,5.000,0
"03/09/08","03:12:39",265007.000,"cc",28320.684,6.00,6,0.100,223339.000,0.200,35840.000,0.300,3234.000,0.500,2054.000,1.000,540.000,5.000,0
"03/09/08","03:12:45",328568.000,"cc",28309.205,6.00,6,0.100,288354.000,0.200,34198.000,0.300,3211.000,0.500,2211.000,1.000,594.000,5.000,0
"03/09/08","03:12:51",304129.000,"cc",28381.240,6.00,6,0.100,256961.000,0.200,41211.000,0.300,3311.000,0.500,2083.000,1.000,563.000,5.000,0
"03/09/08","03:12:57",282911.000,"cc",28336.635,6.00,6,0.100,249039.000,0.200,28177.000,0.300,3023.000,0.500,2123.000,1.000,549.000,5.000,0
"03/09/08","03:13:03",299904.000,"cc",28354.588,6.00,6,0.100,263962.000,0.200,30303.000,0.300,2988.000,0.500,2077.000,1.000,574.000,5.000,0
"03/09/08","03:13:09",217550.000,"cc",28306.440,6.00,6,0.100,191010.000,0.200,20916.000,0.300,2791.000,0.500,2245.000,1.000,588.000,5.000,0
"03/09/08","03:13:15",195404.000,"cc",28329.346,6.00,6,0.100,170255.000,0.200,18428.000,0.300,3245.000,0.500,2686.000,1.000,790.000,5.000,0
"03/09/08","03:13:21",258252.000,"cc",28334.365,6.00,6,0.100,227398.000,0.200,25173.000,0.300,2872.000,0.500,2239.000,1.000,570.000,5.000,0
"03/09/08","03:13:27",231246.000,"cc",28316.693,6.00,6,0.100,204570.000,0.200,21704.000,0.300,2525.000,0.500,1929.000,1.000,518.000,5.000,0
"03/09/08","03:13:33",236372.000,"cc",28305.309,6.00,6,0.100,207615.000,0.200,22917.000,0.300,2890.000,0.500,2295.000,1.000,655.000,5.000,0
"03/09/08","03:13:39",236116.000,"cc",28315.299,6.00,6,0.100,208266.000,0.200,22220.000,0.300,2772.000,0.500,2246.000,1.000,612.000,5.000,0
"03/09/08","03:13:45",336282.000,"cc",28312.147,6.00,6,0.100,293488.000,0.200,36419.000,0.300,3396.000,0.500,2396.000,1.000,583.000,5.000,0
"03/09/08","03:13:51",263915.000,"cc",28288.502,6.00,6,0.100,231874.000,0.200,26041.000,0.300,3067.000,0.500,2284.000,1.000,649.000,5.000,0
"03/09/08","03:13:57",249473.000,"cc",28316.713,6.00,6,0.100,219652.000,0.200,24247.000,0.300,2791.000,0.500,2199.000,1.000,584.000,5.000,0
"03/09/08","03:14:03",158657.000,"cc",28323.016,6.00,6,0.100,139430.000,0.200,14314.000,0.300,2351.000,0.500,2021.000,1.000,541.000,5.000,0
"03/09/08","03:14:09",207861.000,"cc",28348.148,6.00,6,0.100,183032.000,0.200,19168.000,0.300,2782.000,0.500,2326.000,1.000,553.000,5.000,0
"03/09/08","03:14:15",308543.000,"cc",28349.926,6.00,6,0.100,271569.000,0.200,31654.000,0.300,2865.000,0.500,1902.000,1.000,553.000,5.000,0
"03/09/08","03:14:21",335144.000,"cc",28333.824,6.00,6,0.100,294017.000,0.200,35455.000,0.300,3178.000,0.500,1993.000,1.000,501.000,5.000,0
"03/09/08","03:14:27",240116.000,"cc",28238.607,6.00,6,0.100,212318.000,0.200,22687.000,0.300,2528.000,0.500,2073.000,1.000,510.000,5.000,0
"03/09/08","03:14:33",231226.000,"cc",28337.010,6.00,6,0.100,204152.000,0.200,21589.000,0.300,2695.000,0.500,2187.000,1.000,603.000,5.000,0
"03/09/08","03:14:39",173707.000,"cc",28332.059,6.00,6,0.100,152173.000,0.200,16033.000,0.300,2636.000,0.500,2254.000,1.000,611.000,5.000,0
"03/09/08","03:14:45",223989.000,"cc",28310.248,6.00,6,0.100,197781.000,0.200,20977.000,0.300,2622.000,0.500,2086.000,1.000,523.000,5.000,0
"03/09/08","03:14:51",188461.000,"cc",28350.848,6.00,6,0.100,119298.000,0.200,62424.000,0.300,4386.000,0.500,1866.000,1.000,487.000,5.000,0
"03/09/08","03:14:57",256659.000,"cc",28309.666,6.00,6,0.100,226467.000,0.200,25506.000,0.300,2461.000,0.500,1794.000,1.000,431.000,5.000,0
"03/09/08","03:15:03",262124.000,"cc",28316.365,6.00,6,0.100,232177.000,0.200,25288.000,0.300,2449.000,0.500,1739.000,1.000,471.000,5.000,0
"03/09/08","03:15:09",259553.000,"cc",28349.098,6.00,6,0.100,229228.000,0.200,25548.000,0.300,2488.000,0.500,1831.000,1.000,458.000,5.000,0
"03/09/08","03:15:15",187887.000,"cc",28314.686,6.00,6,0.100,164851.000,0.200,17275.000,0.300,2816.000,0.500,2331.000,1.000,614.000,5.000,0
"03/09/08","03:15:21",228955.000,"cc",28260.801,6.00,6,0.100,202919.000,0.200,21191.000,0.300,2455.000,0.500,1884.000,1.000,506.000,5.000,0
"03/09/08","03:15:27",329359.000,"cc",28296.842,6.00,6,0.100,287155.000,0.200,36197.000,0.300,3394.000,0.500,2064.000,1.000,549.000,5.000,0
"03/09/08","03:15:33",257544.000,"cc",28353.525,6.00,6,0.100,226711.000,0.200,25496.000,0.300,2778.000,0.500,2034.000,1.000,525.000,5.000,0
"03/09/08","03:15:39",207186.000,"cc",28290.779,6.00,6,0.100,182995.000,0.200,19318.000,0.300,2475.000,0.500,1900.000,1.000,498.000,5.000,0
"03/09/08","03:15:45",176215.000,"cc",28330.801,6.00,6,0.100,156055.000,0.200,15664.000,0.300,2257.000,0.500,1798.000,1.000,441.000,5.000,0
"03/09/08","03:15:51",167470.000,"cc",28333.736,6.00,6,0.100,149005.000,0.200,14513.000,0.300,1950.000,0.500,1554.000,1.000,448.000,5.000,0
"03/09/08","03:15:57",147779.000,"cc",28339.863,6.00,6,0.100,129974.000,0.200,13208.000,0.300,2168.000,0.500,1932.000,1.000,497.000,5.000,0
"03/09/08","03:16:03",183630.000,"cc",28288.268,6.00,6,0.100,160240.000,0.200,17297.000,0.300,2981.000,0.500,2478.000,1.000,634.000,5.000,0